Regional Weather Roundup
Issued by NWS

Home | Current Version | Previous Version | Text Only | Print | Product List | Glossary On
Versions: 1 2 3 4 5 6 7 8 9 10 11 12 13 14 15 16 17 18 19 20 21 22 23 24 25 26 27 28
000
ASUS45 KREV 201110
RWRNV
NEVADA REGIONAL WEATHER ROUNDUP
NATIONAL WEATHER SERVICE RENO NV
400 AM PDT SUN APR 20 2014

NOTE: "FAIR" INDICATES FEW OR NO CLOUDS BELOW 12,000 FEET WITH NO
SIGNIFICANT WEATHER AND/OR OBSTRUCTIONS TO VISIBILITY.

NVZ001-003-004-201200-
WESTERN NEVADA

CITY           SKY/WX    TMP DP  RH WIND       PRES   REMARKS
RENO           MOCLDY    47  16  29 W3        30.21R
CARSON CITY    FAIR      46  12  25 NW5       30.21R
MINDEN         CLEAR     34  23  64 CALM      30.22
SLIDE MTN        N/A     37   7  28 CALM        N/A
PYRAMID LAKE     N/A     52 N/A N/A SE1         N/A
FALLON         PTCLDY    45  21  38 SW5       30.18R
LOVELOCK       PTCLDY    46  25  43 CALM      30.18R
HAWTHORNE      CLEAR     52  25  35 NW6       30.18R
$$

NVZ002-CAZ072-073-201200-
NORTHERN AND CENTRAL SIERRA

CITY           SKY/WX    TMP DP  RH WIND       PRES   REMARKS
S. LAKE TAHOE  PTCLDY    30  20  66 CALM      30.23S
TRUCKEE        PTCLDY    25  19  80 CALM      30.25S
SQUAW VLY 8000   N/A     36   7  30 CALM        N/A
BLUE CANYON    PTCLDY    50  -2  11 NE5       30.20F
MAMMOTH LAKES  FAIR      27  19  74 CALM      30.24R
BRIDGEPORT     FAIR      30  15  53 CALM      30.22R
$$

NVZ030-031-036-201200-
NORTHERN NEVADA

CITY           SKY/WX    TMP DP  RH WIND       PRES   REMARKS
ELKO           MOCLDY    43  23  45 CALM      30.16R
WINNEMUCCA     MOCLDY    41  28  60 NW8       30.19R
WENDOVER       MOCLDY    57  25  28 NE20      30.05R
$$

NVZ035-037-201200-
CENTRAL NEVADA

CITY           SKY/WX    TMP DP  RH WIND       PRES   REMARKS
ELY            MOCLDY    41  33  73 SE9       30.16R
EUREKA           N/A     38  25  59 S3        30.17R
$$

NVZ013-014-201200-
SOUTH CENTRAL NEVADA

CITY           SKY/WX    TMP DP  RH WIND       PRES   REMARKS
TONOPAH        PTCLDY    54  17  23 N9        30.15R
$$

NVZ017-020-022-201200-
SOUTHERN NEVADA

CITY           SKY/WX    TMP DP  RH WIND       PRES   REMARKS
LAS VEGAS      PTCLDY    68  33  27 SW7       29.93S
N. LAS VEGAS   CLEAR     66  37  34 N5        29.97R
NELLIS AFB     CLEAR     68  38  33 N2        29.96R
HENDERSON      CLEAR     66  34  30 SW12      29.99S
MERCURY        CLEAR     60  31  33 E5        30.02R
$$



USA.gov is the U.S. government's official web portal to all federal, state and local government web resources and services.